星链-36038(STARLINK-36038)

导读

STARLINK-36038是美国于2025年12月1日发射的星链卫星,隶属于SpaceX打造的星链星座项目。星链系统旨在为全球范围提供高速低延迟互联网服务,该卫星将进一步扩充星链星座规模,提升星座覆盖密度与服务容量,助力全球偏远地区、海上及航空场景网络接入能力提升。

Basic Information
目录编号:
66804
目录名称:
STARLINK-36038
国际标识:
2025-278P
轨道中心:
EARTH
卫星名称:
星链-36038
卫星全名:
星链-36038(STARLINK-36038)
卫星状态:
在轨 (已飞行277 天)
发射日期:
2025-12-01 UTC
国别 :
美国 (US)
星等 :
--
Orbit Information
数据来源 国际轨道数据
星历时间: 2026-09-04T13:03:12+0800
10小时前
查看轨道信息
半长轴: 6861.13km
偏心率: 0.0001157
轨道倾角: 43.000°
近地点辐角 229.971°
升交点赤经 186.000°
平近点角 130.104°
近地点: 482.199km
远地点: 483.787km
周期: 94.266分钟
每日圈数: 15.275989
Detailed Information
固有亮度:
5
最大亮度:
2.5
卫星平台:
Starlink V1.0
覆盖范围:
全球
运营商:
太空探索技术公司
运营商所在国:
美国
制造商(研发单位):
太空探索技术公司
制造商所在国:
美国
使用方式:
暂无
Satellite Introduction
Starlink 计划是 SpaceX 推出的全球卫星互联网项目,通过发射低轨道卫星,为全球尤其是偏远地区提供高速、低延迟的互联网服务。自 2019 年起,Starlink 已部署数千颗卫星,旨在缩小全球数字鸿沟,推动互联网普及。该项目还为军事、航空等行业提供通信支持,带来广泛经济效益。
2D Orbit Map
3D Orbit Map
Orbit Altitude Analysis Chart
Orbit Inclination Analysis Chart
Orbit Comprehensive Analysis Chart
View Comprehensive Chart
Conjunction Data List
Event ID Objects TCA Miss Dist (km) Collision Risk Probability Collision Risk Index (CRI) Action
CDM_260906-215705-629206-680421
2026-09-06T
21:57:04+0000
0.428 km
远距离
1.980052E-4 高风险 0.81
CDM_260906-202205-629206-680421
2026-09-06T
20:22:54+0000
1.293 km
极远距离
7.013688E-6 低风险 0.52
CDM_260827-191406-660006-680421
2026-08-27T
19:14:06+0000
1.294 km
极远距离
5.257106E-6 低风险 0.49
CDM_260906-083004-940206-680421
KOSEN-1 (49402)
2026-09-06T
08:30:32+0000
2.102 km
极远距离
2.299098E-6 低风险 0.42
CDM_260906-233105-629206-680421
2026-09-06T
23:31:13+0000
1.932 km
极远距离
2.06756E-6 低风险 0.41
CDM_260906-033905-691906-680421
2026-09-06T
03:39:57+0000
1.686 km
极远距离
1.960857E-6 低风险 0.41
CDM_260906-104305-691906-680421
2026-09-06T
10:43:39+0000
1.699 km
极远距离
1.920877E-6 低风险 0.41
CDM_260906-121705-691906-680421
2026-09-06T
12:17:48+0000
2.011 km
极远距离
1.248834E-6 低风险 0.37
CDM_260904-193206-430906-680421
2026-09-04T
19:32:13+0000
2.961 km
极远距离
1.001852E-6 低风险 0.35
CDM_260906-184805-629206-680421
2026-09-06T
18:48:45+0000
2.821 km
极远距离
9.952015E-7 极低风险 0.35